373  
ASUS41 KRLX 232310  
RWRRLX  
WEST VIRGINIA REGIONAL WEATHER ROUNDUP  
NATIONAL WEATHER SERVICE CHARLESTON WV  
700 PM EDT SAT SEP 23 2017  
 
NOTE: "FAIR" INDICATES FEW OR NO CLOUDS BELOW 12,000 FEET WITH NO  
SIGNIFICANT WEATHER AND/OR S TO VISIBILITY
.  
 
WVZ003-240000-  
NORTHERN PANHANDLE OF WEST VIRGINIA  
 
CITY SKY/WX TMP DP RH WIND PRES REMARKS
 
WHEELING CLEAR 80 57 45 E5 30.12S  

 
 
WVZ009-240000-  
NORTHWEST WEST VIRGINIA  
 
CITY SKY/WX TMP DP RH WIND PRES REMARKS
 
PARKERSBURG CLEAR 83 61 47 E6 30.11S  

 
 
WVZ006-240000-  
WESTERN WEST VIRGINIA  
 
CITY SKY/WX TMP DP RH WIND PRES REMARKS
 
HUNTINGTON CLEAR 84 61 45 N5 30.05S  

 
 
WVZ015-240000-  
WEST CENTRAL WEST VIRGINIA  
 
CITY SKY/WX TMP DP RH WIND PRES REMARKS
 
CHARLESTON CLEAR 83 55 38 NE6 30.07R  

 
 
WVZ022-031-240000-  
NORTH CENTRAL WEST VIRGINIA  
 
CITY SKY/WX TMP DP RH WIND PRES REMARKS
 
CLARKSBURG CLEAR 80 57 45 N7 30.11R  
MORGANTOWN CLEAR 78 57 48 N6 30.13R  

 
 
WVZ025-035-042-045-240000-  
SOUTHERN WEST VIRGINIA  
 
CITY SKY/WX TMP DP RH WIND PRES REMARKS
 
BECKLEY CLEAR 78 53 41 NE7 30.15R  
LOGAN N/A 81 59 47 CALM 30.09F  
BLUEFIELD CLEAR 76 41 28 CALM 30.17S  
LEWISBURG CLEAR 77 43 29 CALM 30.15S  

 
 
WVZ047-240000-  
NORTHERN MOUNTAINS OF WEST VIRGINIA  
 
CITY SKY/WX TMP DP RH WIND PRES REMARKS
 
ELKINS CLEAR 75 54 47 CALM 30.16R  

 
 
WVZ052-240000-  
EASTERN PANHANDLE OF WEST VIRGINIA  
 
CITY SKY/WX TMP DP RH WIND PRES REMARKS
 
MARTINSBURG CLEAR 82 51 34 N5 30.07S  
PETERSBURG CLEAR 75 58 54 W5 30.11R  

 
 
 
CLICK HERE TO GO TO PREVIOUS BULLETINS.

The Nexlab WV Page
The Nexlab OH Page
The Nexlab KY Page
The Nexlab VA Page Main Text Page